Wind_Speed
10 10 10 10 10 10 10 10 9 9 8 9 9 9 10 9 9 9 9 8 8 9 10 10 9 9 9 10 12 13 16 17 17 11 8 13 14 11 9 10 9 5 4 6 6 4 5 4 3 7 6 3 1 1 1 3 1 3 3 3 1 3 5 4 5 4 1 5 9 8 5 2 6 4 2 6 8 6 8 6 4 6 7 10 14 22 25 24
11 10 10 10 9 9 9 9 9 9 9 9 9 9 9 9 9 9 8 8 8 9 10 10 8 9 9 9 11 13 17 17 15 13 14 15 10 10 13 12 8 5 5 6 7 5 2 3 4 7 5 2 2 2 2 1 1 3 3 2 3 5 5 4 5 5 2 4 9 8 4 1 6 6 2 6 5 5 9 5 5 10 10 12 16 22 22 24
10 10 10 9 9 9 9 9 9 9 9 9 9 9 9 8 8 8 8 8 9 9 9 9 8 8 8 9 11 13 15 13 9 9 8 8 9 15 15 12 8 6 7 7 6 5 1 1 2 5 3 2 2 2 3 2 1 1 3 2 5 6 5 5 7 8 5 4 8 6 3 2 3 3 3 7 7 5 8 6 7 10 11 13 12 16 20 22
10 10 10 9 10 9 9 9 9 9 9 9 9 9 8 8 8 8 8 8 9 9 8 8 8 8 8 9 11 12 11 6 3 5 4 4 9 17 16 12 8 6 8 8 4 3 1 1 3 4 2 2 3 1 1 3 2 1 3 4 7 4 4 7 8 9 5 2 5 3 6 2 3 2 5 11 9 1 5 9 12 15 16 16 12 13 17 17
11 10 10 9 9 9 9 9 9 9 9 9 9 8 8 8 8 8 8 8 8 7 7 7 7 7 8 9 9 9 7 3 2 5 4 1 9 16 14 11 8 5 8 9 5 2 2 2 4 4 3 1 3 1 2 4 2 1 3 6 7 2 4 9 6 7 4 2 1 3 5 2 1 2 6 11 10 6 8 9 13 20 20 19 16 13 13 13
11 10 10 10 9 9 9 9 9 9 9 9 8 8 8 7 7 7 7 7 7 7 6 6 6 7 8 8 6 5 2 1 5 6 4 0 8 14 12 9 8 6 8 9 4 1 1 3 4 2 1 1 2 2 4 4 3 2 4 5 7 4 5 8 5 4 2 2 1 3 2 1 4 4 4 3 5 5 6 9 13 18 20 21 19 15 13 12
11 11 10 10 9 9 9 9 9 9 9 8 8 8 8 7 7 7 7 6 6 5 5 5 6 7 8 6 3 3 2 4 7 5 3 1 6 12 11 10 9 8 10 9 3 2 3 5 3 2 1 2 3 4 5 3 2 4 5 6 7 5 8 9 6 5 3 1 2 2 4 3 5 7 2 3 6 3 6 8 9 12 15 17 15 13 13 12
11 11 10 10 9 9 9 9 9 9 9 8 8 8 8 7 7 7 6 5 4 4 4 4 5 6 8 4 1 3 1 6 8 6 5 3 4 10 11 10 10 11 11 8 6 5 3 4 3 3 1 2 3 3 4 2 1 4 6 6 5 5 8 10 8 9 5 4 3 5 5 2 7 6 2 4 7 2 8 9 9 10 11 12 12 13 12 11
11 11 10 10 10 9 9 9 9 9 9 9 9 8 8 7 7 6 4 3 2 2 3 4 5 6 7 3 2 2 3 6 10 8 6 5 5 9 10 10 11 12 9 6 6 5 3 4 4 3 2 3 2 3 3 0 2 6 7 6 5 6 8 8 9 9 6 5 1 5 4 1 5 4 1 5 4 3 9 10 11 12 12 11 10 11 11 11
11 11 10 10 10 10 10 10 10 10 9 9 9 8 8 7 6 5 3 3 1 1 3 4 4 6 4 2 4 2 4 7 10 6 5 6 6 10 10 9 12 12 7 5 7 7 6 5 3 3 2 2 3 3 1 3 4 5 5 6 8 10 8 5 7 9 5 3 1 6 4 2 1 2 2 3 1 6 10 10 10 12 12 11 10 9 10 11
12 11 11 11 11 11 11 11 11 10 9 8 8 8 7 7 6 4 2 2 1 1 2 3 4 5 1 2 4 2 4 6 8 4 5 7 7 10 10 9 10 12 9 5 9 13 13 8 3 3 1 1 3 4 3 4 4 5 4 6 8 7 5 2 3 7 3 1 2 7 4 2 4 1 6 4 5 8 12 11 10 11 10 10 11 9 8 8
12 12 11 11 12 12 11 11 11 10 9 8 7 7 6 6 4 3 1 2 2 1 0 2 3 3 2 2 3 6 3 6 8 4 6 9 8 7 7 8 8 11 11 7 9 15 17 11 3 2 3 1 3 3 4 4 3 6 3 3 7 5 2 4 2 3 1 2 3 6 4 5 3 4 4 5 7 8 12 13 11 11 9 8 9 7 6 7
12 12 12 12 12 12 11 11 11 10 9 8 7 7 6 4 2 1 1 1 2 1 0 1 2 2 2 1 5 5 3 5 8 7 7 10 10 8 8 9 9 10 11 10 12 15 16 12 6 4 5 2 3 3 2 3 2 5 2 2 3 6 2 4 1 2 2 2 3 5 2 6 7 7 2 5 7 8 10 11 11 9 7 7 7 6 6 7
13 12 12 12 12 12 11 11 11 10 9 9 8 8 6 3 1 1 1 1 2 1 1 1 2 2 1 4 6 2 5 6 6 9 10 12 13 11 10 12 13 13 13 15 18 18 14 10 7 4 4 3 3 4 4 6 4 4 3 2 2 2 3 6 4 0 3 2 0 6 1 7 8 8 4 5 7 10 10 11 11 9 7 7 6 6 6 6
12 12 12 12 12 12 12 11 10 10 9 8 8 8 7 3 1 1 1 2 3 1 0 1 2 1 2 6 7 5 7 6 8 12 11 14 14 10 8 10 13 13 15 17 19 18 12 7 6 3 4 2 3 4 4 5 4 3 2 3 4 1 3 8 4 4 4 3 3 7 2 6 7 7 6 6 7 10 11 10 10 9 8 7 6 6 6 5
11 11 11 11 11 12 12 11 10 10 10 9 8 7 6 3 1 3 2 3 3 2 2 2 1 2 1 4 6 6 5 5 6 8 12 16 16 13 8 6 8 8 11 14 15 16 10 4 3 1 1 3 4 4 4 4 4 4 2 1 3 2 3 5 3 2 2 2 2 2 3 4 5 6 7 8 9 10 11 11 10 9 8 8 7 6 6 6
11 11 11 11 11 12 12 12 11 10 10 10 9 7 5 2 2 3 3 2 2 2 2 1 1 2 2 6 6 5 4 5 6 6 12 16 17 17 10 5 5 6 6 7 7 7 5 1 1 2 2 3 2 4 3 3 3 4 3 2 3 1 1 3 4 4 1 2 4 2 4 5 6 3 6 9 10 11 10 11 11 10 9 7 7 6 7 8
11 10 10 10 11 11 12 13 12 11 11 10 11 8 4 0 2 2 3 4 3 2 1 1 1 2 2 5 4 5 10 11 8 6 10 15 18 19 12 5 4 6 7 7 3 1 2 1 2 2 3 4 3 5 2 4 2 2 1 2 3 2 1 2 4 4 4 2 5 3 5 8 8 5 1 5 8 10 11 11 10 10 9 8 8 8 8 9
10 9 10 10 11 11 12 13 13 14 12 11 12 8 1 2 2 2 2 3 2 0 2 2 1 1 2 5 6 10 15 12 6 6 9 13 14 15 12 6 3 4 3 3 4 2 1 2 3 1 3 3 2 4 6 7 6 4 3 4 1 1 3 4 5 5 3 2 2 4 6 5 6 8 4 1 5 10 10 7 7 6 6 7 8 8 9 11
8 9 9 9 10 10 11 12 13 14 14 12 12 5 2 2 3 2 1 2 4 5 4 4 4 2 6 7 7 10 12 8 4 4 7 10 10 8 6 3 2 4 2 1 3 3 2 1 2 4 6 7 7 6 6 4 4 3 3 4 1 1 3 5 5 6 1 3 3 5 4 3 4 8 7 3 2 7 9 8 7 7 7 8 9 9 11 11
8 8 8 9 9 10 10 12 12 13 14 14 10 3 2 1 2 3 3 3 6 8 8 7 7 7 9 10 9 7 6 4 5 4 5 8 8 5 2 0 2 2 3 2 2 3 2 0 5 8 9 8 6 5 4 4 4 3 3 2 3 0 3 5 4 6 3 4 3 4 1 3 5 6 7 5 1 5 9 10 10 11 10 9 10 11 10 6
8 7 7 7 8 9 10 10 11 13 13 12 8 2 2 2 3 6 2 3 7 7 9 7 6 8 10 14 15 5 2 2 7 8 5 5 4 3 2 3 3 3 4 2 2 5 4 4 10 9 6 3 1 2 4 5 5 3 2 2 2 2 3 6 5 6 4 3 3 3 2 4 7 6 7 6 3 4 7 11 11 11 10 9 10 9 7 6
8 7 7 6 6 7 8 9 11 11 10 9 6 2 4 6 7 8 2 2 7 4 5 5 4 5 6 10 11 4 4 4 4 7 6 7 2 3 4 3 2 2 2 2 2 0 2 7 9 3 5 5 1 2 5 3 3 3 3 3 2 3 0 3 5 6 4 2 1 1 3 5 6 5 6 5 4 4 3 9 10 10 11 12 11 9 9 11
7 7 7 6 6 6 7 10 9 8 9 8 6 7 9 10 9 7 2 1 4 4 4 6 5 4 6 6 5 8 3 4 4 5 7 10 3 2 4 3 3 1 3 3 6 4 6 9 4 3 5 6 3 1 4 4 1 2 3 5 3 3 3 4 4 5 5 5 2 4 5 5 5 4 6 5 4 5 3 2 5 8 11 11 10 9 10 11
6 7 6 6 5 5 7 8 5 7 9 5 5 11 12 11 11 6 1 2 3 5 4 4 3 4 7 4 6 8 2 2 5 5 7 11 6 3 2 2 3 3 5 4 6 3 8 7 1 1 3 5 5 4 4 6 3 4 3 6 7 5 4 3 3 5 4 4 3 3 2 5 5 4 6 5 5 5 5 4 6 7 7 8 9 10 10 10
5 6 6 6 5 5 6 3 4 9 6 1 7 14 14 13 11 3 2 4 2 4 3 1 2 2 4 3 5 4 3 2 7 4 6 10 9 5 1 1 1 3 4 4 3 1 5 5 2 2 4 4 5 5 4 6 4 2 5 7 7 5 4 3 1 4 2 3 4 2 3 4 5 4 6 5 6 8 7 6 8 8 5 8 10 10 11 11
4 5 5 5 5 5 4 2 5 6 1 4 12 16 17 15 7 2 3 4 2 4 1 1 0 1 3 2 3 5 1 5 5 1 4 9 7 3 1 3 1 2 3 3 1 2 3 6 6 2 1 3 4 4 5 7 7 3 5 6 7 5 5 5 5 4 2 3 4 4 4 2 4 5 6 5 6 9 9 8 9 9 8 8 10 11 12 14
4 4 4 5 5 5 5 5 5 2 2 9 14 16 19 13 3 3 4 3 3 3 1 1 1 1 2 1 3 3 3 2 1 3 2 7 5 4 1 5 4 5 2 4 3 5 1 3 4 0 3 2 5 6 7 8 4 6 5 6 5 4 5 5 6 4 1 1 3 5 2 1 4 6 6 5 4 7 8 9 10 10 10 8 9 12 13 14
4 4 4 4 5 5 6 6 4 3 7 11 13 18 18 7 2 2 4 2 2 1 1 1 1 2 3 2 0 1 2 1 1 4 2 3 2 3 2 6 5 3 1 4 5 6 3 4 5 4 3 4 6 5 8 10 4 4 5 5 3 4 4 4 5 3 2 2 4 6 1 2 4 6 4 3 3 6 7 8 9 10 11 8 8 10 11 12
4 4 4 4 5 5 7 7 4 6 10 12 16 18 11 2 3 4 2 1 1 2 1 1 1 2 1 2 3 4 2 2 2 2 3 1 3 4 2 3 5 4 1 3 2 5 4 3 3 4 4 6 6 3 5 7 5 3 5 4 5 5 4 3 2 3 2 1 6 7 5 4 2 5 4 3 4 3 4 7 9 10 10 9 6 7 10 11
5 5 4 6 6 6 6 6 5 7 10 14 18 13 3 2 4 4 1 2 1 3 3 2 3 3 2 1 3 4 2 3 2 1 1 1 3 4 1 1 4 3 3 5 3 5 7 3 2 3 3 4 3 1 1 1 2 4 4 4 2 3 4 4 4 3 1 4 6 6 4 5 2 5 5 5 5 3 3 6 9 11 11 11 7 2 6 8
6 5 5 6 7 7 6 5 6 9 11 15 15 7 4 2 2 1 2 3 1 2 2 2 3 3 3 0 1 4 2 2 2 3 4 3 2 2 2 4 1 2 4 3 2 5 4 4 3 5 3 4 4 0 3 5 5 5 4 5 3 1 3 2 3 1 3 5 5 4 2 2 4 6 5 6 7 7 5 6 7 7 9 11 10 4 3 1
5 5 6 7 8 9 7 6 7 9 13 15 9 4 5 4 0 2 2 2 1 2 1 3 3 2 2 4 3 5 3 2 4 2 2 1 3 4 3 3 5 2 3 3 0 3 3 5 5 4 3 1 5 3 2 3 1 3 4 4 4 2 2 2 3 2 3 5 4 3 2 2 3 3 5 6 7 6 5 4 2 5 10 11 11 8 5 4
5 5 7 8 8 9 6 6 8 9 13 11 4 4 4 2 2 2 2 2 2 2 2 2 4 3 4 4 1 3 3 3 5 3 1 1 0 3 4 3 3 3 2 1 1 1 0 4 3 1 2 2 3 4 5 4 3 3 3 5 4 4 3 4 3 3 4 4 4 3 2 2 1 1 6 7 5 4 4 2 5 9 9 10 12 12 10 6
6 7 8 8 8 6 5 6 8 8 8 5 6 4 2 2 3 1 2 3 1 2 3 2 3 4 4 3 2 3 2 2 5 4 2 1 1 3 2 3 2 3 4 2 2 1 1 5 6 3 2 2 2 2 5 6 2 2 2 5 2 4 5 2 2 4 3 1 2 2 2 3 2 3 6 5 2 4 6 7 11 11 10 12 13 11 10 9
5 6 6 7 6 4 4 5 6 5 3 5 6 3 2 3 2 2 2 2 0 2 3 4 4 4 4 4 3 5 3 1 4 4 2 1 0 2 2 3 2 2 5 4 3 1 1 4 6 4 3 2 2 1 0 3 1 1 1 2 4 3 6 3 1 0 3 1 3 1 2 4 1 1 6 4 4 7 8 10 11 9 11 14 11 9 9 9
3 4 4 5 5 4 4 4 3 3 3 6 4 1 3 3 3 3 1 1 0 1 4 3 2 1 2 3 3 5 5 3 4 3 2 3 2 2 3 3 2 1 2 3 2 2 4 3 6 0 0 3 1 4 5 3 3 4 1 4 3 1 3 3 0 3 4 0 4 1 2 4 1 1 6 6 7 7 7 7 9 9 11 12 9 8 9 8
5 4 2 5 5 4 6 6 3 0 4 5 1 2 2 2 1 1 1 1 0 2 5 1 1 0 0 1 3 5 4 3 3 3 2 2 1 2 2 2 2 3 2 3 1 1 3 2 7 1 2 4 4 4 2 6 3 5 3 2 1 1 1 1 1 0 0 1 3 3 2 3 3 4 3 0 3 3 5 7 9 9 9 8 7 7 8 9
7 3 2 7 7 7 9 7 2 4 5 3 0 2 2 2 2 3 4 2 1 3 2 2 1 1 1 2 3 3 3 1 2 3 1 1 2 1 2 1 3 6 5 4 4 2 2 1 6 4 1 3 5 2 2 4 5 2 2 3 2 3 3 0 1 2 2 3 2 3 3 2 5 6 6 6 6 4 4 6 7 6 5 5 5 6 7 7
6 2 1 8 10 9 11 6 3 5 3 1 2 2 2 2 3 5 6 4 1 2 1 3 2 1 2 2 1 2 1 0 0 1 1 0 3 4 5 4 4 6 6 5 4 1 2 2 4 6 4 2 3 0 4 3 1 2 3 3 3 1 1 0 0 2 3 3 2 2 3 4 5 4 7 8 6 5 5 6 5 5 5 4 3 4 5 6
4 3 2 8 12 10 8 4 4 3 1 0 1 2 2 2 2 4 5 5 2 1 1 3 4 3 3 1 1 2 0 0 1 1 1 1 1 1 4 5 3 4 5 5 3 1 1 1 3 3 4 2 4 4 4 5 5 4 2 1 1 1 0 1 2 2 1 2 3 4 2 5 5 2 3 6 6 5 5 5 4 3 4 4 3 2 3 5
4 2 4 10 16 10 4 4 2 1 2 1 1 3 3 2 2 3 4 4 3 1 2 2 3 2 2 2 2 2 2 0 2 1 2 2 1 1 4 6 4 2 2 2 3 2 2 3 2 2 4 4 7 7 4 4 4 5 2 2 3 3 3 3 3 3 1 1 1 4 1 5 5 3 1 3 4 5 4 4 4 2 3 4 4 3 3 4
2 2 5 11 16 8 5 3 4 3 1 2 2 3 3 2 1 3 3 3 3 2 2 1 1 1 1 1 1 2 2 1 3 2 2 2 1 0 5 9 8 4 3 2 4 2 1 3 2 2 3 4 6 5 2 1 3 5 1 1 4 4 4 4 4 2 2 2 1 2 2 5 5 4 2 1 2 3 4 1 3 2 1 4 5 5 5 5
1 4 4 10 16 6 4 1 2 1 4 4 3 3 3 2 1 2 3 2 2 1 1 1 1 1 0 1 2 2 2 1 2 3 1 1 1 1 8 11 8 5 3 1 1 1 2 0 2 2 4 5 7 6 4 4 2 3 0 2 3 3 4 2 1 3 1 3 3 4 3 5 4 5 4 4 4 5 5 3 2 3 2 3 4 5 4 5
2 2 3 9 15 9 4 3 3 2 3 4 4 4 3 2 3 2 3 3 2 1 1 2 1 1 2 2 2 1 1 2 1 3 1 2 2 2 8 10 7 5 3 2 2 0 2 1 2 2 2 3 2 3 3 3 1 0 1 2 2 2 3 1 1 3 1 3 2 4 3 4 4 5 6 5 5 4 6 6 3 3 3 2 2 3 4 5
2 2 3 6 9 8 2 1 4 2 1 2 3 3 1 2 4 4 3 2 3 1 2 3 3 3 4 4 4 3 3 2 2 1 2 3 3 2 5 7 6 7 7 10 9 2 2 1 2 5 5 6 5 6 5 2 2 3 2 3 2 1 1 3 2 2 3 2 2 4 5 4 7 5 5 6 4 5 5 4 5 3 2 1 1 1 3 5
2 1 2 2 4 4 3 4 5 2 1 0 1 2 2 2 3 4 2 1 3 3 3 3 5 4 2 3 3 1 3 3 3 3 1 3 3 4 6 4 4 9 10 10 8 3 4 3 2 4 5 7 7 7 5 1 3 5 3 3 5 4 3 5 3 4 4 2 5 6 5 5 7 6 5 6 5 4 3 3 3 2 1 2 1 1 4 5
2 1 1 1 1 1 2 4 4 3 3 2 1 2 3 5 4 3 3 2 3 4 3 2 5 4 2 2 2 1 2 3 3 2 0 2 2 4 7 3 2 8 9 6 5 4 4 2 3 2 4 5 5 6 5 3 4 4 4 5 6 6 5 6 7 7 6 5 8 7 6 6 7 6 6 6 4 4 5 5 3 2 1 3 4 5 6 6
2 1 2 2 0 2 2 3 3 3 4 2 2 3 3 5 5 4 3 3 3 4 3 1 2 2 1 2 3 2 0 0 1 2 1 1 3 2 4 4 3 5 8 5 4 2 3 2 3 1 3 6 5 5 4 4 4 3 4 5 5 7 8 8 7 6 8 8 9 6 6 8 6 6 8 6 4 4 4 4 4 4 4 5 6 6 6 6
2 1 3 3 2 2 2 2 1 2 3 3 3 3 2 4 6 5 4 2 1 3 3 2 3 3 1 3 5 3 3 5 3 3 2 1 2 1 1 2 3 4 6 4 3 3 2 2 2 2 3 6 6 5 4 2 3 4 5 4 5 6 7 7 5 4 5 7 8 5 5 8 6 5 7 5 4 1 2 5 5 4 5 6 6 6 5 5
3 3 2 2 2 3 2 3 2 3 3 3 2 3 3 4 5 5 4 1 3 1 0 2 4 2 2 3 4 3 6 6 6 6 6 4 2 3 2 3 2 3 4 2 1 2 2 1 2 4 3 6 4 5 6 5 3 5 6 5 6 7 6 5 4 4 6 6 5 3 4 6 5 3 2 3 5 4 3 4 5 5 4 4 5 5 6 6
8 3 3 3 1 3 3 2 3 3 1 2 3 3 2 4 6 4 2 2 2 1 3 5 3 1 2 4 3 4 8 7 7 8 6 5 5 5 4 4 2 1 1 1 1 1 2 1 1 1 2 6 4 5 5 4 5 8 7 7 10 9 7 5 3 5 7 6 5 4 5 6 3 2 2 2 4 3 2 4 4 4 4 2 1 2 4 5
Wind_Direction
329 326 322 320 317 316 314 311 313 307 307 315 318 323 322 322 320 319 319 319 319 314 316 314 304 306 314 324 326 324 324 318 315 308 263 265 263 238 207 182 185 199 231 254 255 273 339 352 356 10 15 4 330 280 259 185 139 83 96 110 178 232 226 192 194 222 250 302 300 312 329 155 134 101 97 68 56 92 87 52 61 40 59 107 122 136 141 144
331 328 325 323 318 314 313 312 314 312 312 316 320 320 319 321 322 322 316 315 317 315 315 309 307 316 322 330 328 328 327 320 313 293 264 270 264 215 199 189 196 224 234 242 239 228 22 15 11 25 32 11 316 295 316 252 131 125 125 124 211 221 222 200 210 250 251 280 296 301 316 234 148 131 119 106 102 100 90 63 70 78 85 105 121 132 139 143
331 328 324 322 318 315 316 315 316 315 315 315 315 315 316 318 321 323 317 314 313 312 310 309 318 325 331 331 328 332 326 322 311 278 282 290 232 199 193 196 203 220 228 232 234 214 181 8 35 42 39 344 293 284 335 305 234 178 134 169 241 222 238 246 231 250 230 245 304 312 40 40 201 131 96 120 117 111 125 135 115 116 129 131 135 137 142 145
332 329 326 323 321 320 319 317 315 313 313 312 311 314 314 316 321 319 316 313 312 310 306 315 325 327 335 330 327 331 326 331 302 267 336 347 201 186 186 195 192 207 220 214 219 225 240 39 64 57 60 321 301 306 289 268 238 221 152 190 240 211 244 260 240 255 245 202 297 329 73 67 286 27 122 131 113 101 194 182 154 149 151 147 153 151 149 148
335 332 330 326 323 323 319 316 314 314 313 312 311 311 313 315 314 311 310 309 309 307 306 319 328 332 334 328 325 324 336 37 286 295 347 344 192 183 183 188 182 198 205 199 217 244 246 55 71 53 52 304 306 20 245 247 156 214 225 204 234 219 251 268 254 266 268 197 264 55 88 145 325 66 149 145 144 194 205 196 163 153 156 157 158 156 153 150
335 332 333 328 326 324 320 320 318 317 314 312 310 308 309 305 305 306 304 304 304 303 312 326 328 332 331 329 333 327 12 101 280 304 338 278 199 193 189 198 197 203 199 198 218 192 152 72 67 61 46 303 236 203 247 254 152 220 272 232 240 222 232 270 272 285 336 122 159 107 134 66 98 149 188 171 201 213 170 173 166 158 159 155 152 153 156 157
334 333 333 330 331 328 326 326 321 320 318 314 311 309 308 306 305 299 293 294 293 302 318 327 326 332 339 337 336 11 72 248 285 300 284 284 204 199 193 205 203 200 202 203 194 133 112 88 87 154 120 310 228 215 251 269 166 196 265 269 258 222 227 263 271 292 343 169 254 115 104 67 133 166 179 298 275 243 136 144 151 149 146 143 145 152 157 158
334 333 331 331 333 331 328 325 321 319 316 312 307 306 305 303 297 287 289 289 288 313 317 319 330 341 350 350 323 7 341 255 304 312 255 223 194 191 187 195 197 200 201 202 185 158 139 122 172 184 134 272 196 215 262 317 329 209 237 264 267 239 242 262 265 270 264 237 275 75 81 145 165 149 93 299 289 197 131 118 121 125 128 137 148 155 156 157
334 332 331 333 333 331 329 326 323 316 311 308 302 300 297 294 291 285 289 290 297 317 311 323 337 356 358 351 60 16 283 285 321 314 246 214 191 180 183 187 189 195 188 196 189 159 180 184 197 191 205 268 210 246 262 319 270 219 223 252 266 261 252 257 259 254 235 234 230 91 58 250 166 114 28 299 305 139 116 111 127 132 138 147 157 161 159 158
334 332 333 334 334 337 337 334 329 321 314 307 300 297 292 292 291 288 283 277 288 302 320 341 344 8 2 339 61 36 304 330 329 309 217 202 184 172 179 183 185 191 179 180 187 174 197 197 162 160 207 279 251 258 178 148 220 225 233 263 265 257 251 249 254 246 217 228 181 122 132 254 290 68 255 285 86 129 114 119 141 141 149 157 163 169 164 163
336 336 337 337 340 344 344 343 339 333 324 313 305 297 290 293 290 286 277 243 208 242 328 352 353 7 354 59 88 220 309 355 340 320 202 200 186 181 185 190 193 194 187 179 200 209 221 215 117 91 220 270 271 273 241 199 232 269 276 290 290 268 245 217 228 244 211 194 137 117 129 300 348 332 217 197 144 144 132 138 155 152 156 161 166 173 170 167
339 338 340 342 344 346 349 351 351 347 341 334 320 304 293 293 289 282 259 222 217 200 307 353 3 1 351 54 171 229 318 6 344 335 210 208 205 207 206 208 210 204 199 197 222 227 232 230 133 108 243 256 311 291 256 244 261 294 295 280 312 352 253 220 208 248 187 199 186 117 40 333 306 265 234 157 146 153 144 150 162 160 160 163 171 171 167 159
342 342 343 343 342 345 352 355 358 359 356 354 344 329 311 295 299 276 224 206 216 197 203 11 348 334 11 309 225 232 304 324 321 304 243 228 228 230 229 227 230 225 216 219 245 251 249 240 184 191 236 192 272 271 299 322 332 313 341 141 319 12 331 254 347 350 122 209 200 127 359 291 268 275 261 146 148 147 149 162 167 163 163 166 173 166 162 159
343 343 340 341 341 342 350 356 358 2 3 4 2 359 344 320 334 209 206 193 194 206 277 17 353 357 61 266 256 280 304 294 269 253 243 235 237 246 245 239 239 239 237 241 255 267 271 252 210 216 241 189 250 290 349 354 6 327 330 53 16 39 280 299 332 156 161 250 131 109 181 258 267 279 245 173 156 152 164 177 171 167 170 168 172 167 165 167
342 340 338 338 338 337 343 352 356 358 1 4 6 6 359 349 110 152 181 192 183 168 241 9 348 25 28 281 276 310 300 279 244 233 226 229 234 247 257 241 240 245 245 249 257 268 282 258 220 229 260 267 27 19 359 341 355 4 342 328 350 87 273 303 306 195 195 291 43 101 174 269 267 258 226 181 163 166 174 182 179 177 174 167 171 169 161 165
339 336 334 332 334 333 333 344 355 354 356 358 355 354 352 355 137 158 176 195 185 152 104 43 14 102 76 286 305 324 281 246 257 233 211 223 228 233 261 271 260 258 248 251 254 262 279 261 224 189 273 332 47 75 30 0 344 358 63 270 302 10 320 311 320 256 221 293 347 114 188 266 274 234 200 184 178 178 180 185 188 186 179 171 172 170 159 164
336 331 329 326 327 327 327 336 347 353 358 352 346 343 339 347 145 165 172 163 147 153 128 65 40 72 268 280 316 333 295 266 272 242 210 219 227 232 252 300 299 302 297 286 259 250 281 283 279 353 33 14 62 89 34 347 321 320 24 49 278 312 321 311 315 309 31 187 247 245 202 238 278 252 178 195 191 180 188 193 192 190 184 175 169 170 168 174
331 327 324 320 320 322 326 330 336 350 358 351 347 344 328 6 115 121 149 141 122 127 111 350 41 41 282 286 313 306 304 293 266 245 222 218 226 230 238 267 311 336 347 348 338 278 313 332 38 10 358 1 30 80 116 233 212 263 308 44 319 326 292 289 280 300 0 294 232 208 231 249 276 303 175 199 196 189 201 201 200 197 184 177 173 177 179 182
327 323 318 314 316 320 322 326 331 339 345 348 348 347 2 119 90 83 131 129 115 256 279 239 167 43 272 271 285 295 307 299 250 228 223 214 219 224 231 256 322 2 12 360 338 347 52 18 31 351 303 298 250 142 175 207 184 195 194 150 159 342 294 275 257 275 350 350 279 212 234 263 278 296 319 247 194 198 208 207 211 209 187 185 184 183 185 191
325 319 313 311 313 316 318 322 327 329 334 343 344 350 79 47 24 346 289 189 208 235 253 215 183 265 286 276 290 316 328 317 248 218 219 206 192 193 219 251 6 24 56 186 285 315 102 76 277 225 234 240 233 205 187 185 168 159 119 124 132 85 296 285 272 296 22 109 309 249 234 308 289 280 287 281 186 176 191 200 206 206 197 194 195 195 194 197
328 318 311 310 311 314 318 318 321 323 327 335 344 19 130 93 37 328 298 265 239 225 235 229 202 236 265 269 288 332 4 335 308 295 238 198 164 156 226 146 88 312 289 206 249 331 52 81 250 230 225 227 228 208 173 122 106 105 117 98 357 67 264 275 260 307 349 113 304 286 198 288 274 269 281 300 17 152 176 190 200 203 203 201 201 201 194 185
330 320 314 314 314 317 317 316 319 322 326 336 353 52 217 262 317 314 311 300 281 226 221 239 231 251 262 266 272 286 72 303 310 301 229 168 136 174 224 76 123 238 298 18 14 354 3 273 253 242 207 172 117 132 129 107 97 81 102 85 340 264 283 300 290 314 360 95 293 320 50 281 275 274 279 290 267 213 183 183 199 203 203 210 210 202 178 164
329 322 323 324 324 321 318 319 319 322 331 340 341 324 324 340 334 322 329 286 293 257 214 220 217 248 267 271 254 189 133 205 265 287 211 153 138 183 147 91 127 234 337 72 148 88 310 254 245 221 131 132 86 93 110 103 90 87 114 117 280 265 278 290 296 320 348 44 238 49 32 305 299 311 289 282 264 269 206 183 197 200 203 210 208 200 184 177
330 325 330 334 336 328 321 322 323 332 336 334 340 352 358 1 351 338 326 263 297 288 238 206 191 212 241 269 207 153 153 197 194 266 194 150 131 155 151 147 128 271 269 167 151 179 251 255 236 99 126 154 185 184 145 163 235 291 168 154 204 238 211 219 277 326 341 357 44 72 23 320 324 339 298 306 337 314 318 191 209 210 210 212 203 199 196 190
335 332 334 344 353 340 329 328 337 350 337 332 6 359 357 347 335 339 30 36 315 292 275 207 195 229 238 232 165 163 167 218 214 227 178 157 152 140 185 181 134 243 247 158 133 197 260 263 194 210 228 164 175 222 202 176 200 305 244 194 197 207 210 232 327 18 25 344 338 49 17 290 319 325 272 298 343 311 322 330 266 240 211 202 205 202 194 196
345 338 340 355 11 355 342 346 1 351 338 359 360 347 345 335 321 323 91 43 337 289 308 163 170 236 244 195 159 140 65 282 249 220 173 176 171 137 148 221 81 244 221 152 136 217 264 286 35 223 234 170 174 229 227 164 135 313 246 203 184 158 143 162 123 82 102 258 295 50 149 249 317 314 267 303 334 301 305 306 278 272 235 197 205 204 190 191
353 346 351 0 15 4 353 359 348 351 354 334 342 340 339 334 311 217 78 36 324 287 281 218 104 162 235 217 129 103 112 268 280 259 176 182 177 86 141 218 332 246 198 109 347 272 267 325 360 31 117 147 175 229 222 150 126 235 235 167 148 144 158 166 146 142 195 235 315 15 111 190 299 280 277 330 337 302 302 295 280 277 261 221 209 206 194 190
2 351 354 356 2 359 350 347 343 355 345 329 333 335 334 330 268 174 77 72 273 289 234 258 296 201 268 298 117 129 222 246 2 297 233 167 171 63 123 221 200 217 204 121 239 267 254 311 304 255 87 146 202 215 189 145 141 242 211 149 149 162 165 144 131 156 256 76 305 321 55 161 273 277 304 353 322 286 286 284 282 280 273 249 216 210 199 191
3 347 343 345 340 331 330 334 329 331 336 332 330 331 330 327 162 91 72 104 263 296 212 305 328 279 316 4 77 308 294 56 169 266 5 117 199 64 156 217 168 181 265 120 199 250 239 226 216 163 135 209 231 220 171 157 190 233 158 118 65 65 93 96 116 141 53 71 240 266 218 170 271 286 310 347 273 263 271 275 277 278 280 270 230 211 199 189
351 343 333 335 329 317 320 323 324 333 333 330 327 328 330 1 84 64 70 212 283 299 283 18 346 291 21 46 321 313 274 257 255 281 45 69 325 24 155 196 100 118 347 30 206 247 287 269 178 157 180 202 210 203 169 173 184 144 103 74 32 26 42 48 75 105 79 281 248 244 204 162 258 283 260 233 229 240 279 289 291 297 308 308 271 210 192 187
345 351 338 332 330 319 321 329 336 334 326 325 328 333 360 66 64 82 181 235 259 318 345 347 324 340 39 158 282 305 274 277 286 184 161 211 336 6 23 308 43 64 5 352 298 300 331 322 208 243 224 161 138 111 56 30 75 92 85 71 51 335 10 21 358 42 140 257 261 245 193 143 191 261 250 252 271 268 254 273 293 312 333 339 328 226 181 196
344 353 342 333 327 311 303 310 324 328 324 325 333 358 89 38 24 120 270 302 285 298 334 298 298 337 334 35 323 307 300 300 294 193 182 191 226 239 203 202 178 25 333 295 298 332 323 251 266 306 271 135 111 322 331 2 33 81 95 81 87 316 2 339 301 322 211 252 255 216 154 146 220 249 260 272 285 281 261 261 283 325 3 6 356 7 106 137
340 342 340 331 320 309 299 303 319 325 324 327 341 47 81 67 49 230 286 338 256 253 279 270 287 332 12 48 5 318 328 316 314 307 196 181 213 245 266 207 162 137 263 229 313 347 325 302 325 341 298 120 123 155 264 321 32 136 144 121 132 132 63 268 270 282 255 269 269 219 196 259 269 285 281 275 286 304 319 300 305 35 38 32 21 23 52 88
323 321 322 314 306 300 291 298 311 315 320 334 27 64 58 82 231 246 283 277 254 318 336 292 312 351 39 64 2 339 18 327 324 353 32 42 11 274 302 274 177 146 164 158 191 178 79 306 299 181 276 334 106 153 169 168 179 200 171 131 142 156 162 225 228 213 250 273 292 288 232 196 154 278 276 271 292 355 33 17 47 51 44 46 40 32 30 30
298 302 304 302 307 305 283 283 296 305 320 2 65 67 94 203 258 245 248 262 283 337 321 329 21 30 9 350 331 10 44 284 329 12 54 65 178 227 259 270 249 125 124 156 234 184 133 257 256 257 284 69 83 206 163 129 117 254 157 107 150 185 161 186 198 180 194 243 292 287 232 216 176 251 281 274 304 33 59 54 48 42 39 48 40 28 34 27
286 301 293 292 316 333 297 277 281 299 341 61 65 58 173 210 238 175 217 255 295 313 327 358 38 52 345 318 334 350 357 317 357 17 1 354 228 229 238 265 283 148 152 165 206 178 109 268 276 311 343 55 100 263 81 101 142 232 102 160 236 194 131 124 276 345 81 113 274 263 241 290 346 313 312 343 41 27 34 53 54 42 41 50 41 19 26 32
321 316 294 305 342 359 332 310 280 288 41 78 82 218 223 218 193 183 229 340 37 58 66 25 349 38 338 329 321 328 350 4 8 20 340 333 331 295 302 302 309 257 184 162 217 207 145 256 285 21 109 292 50 77 37 20 108 115 152 231 249 19 90 114 152 1 44 202 275 278 206 272 337 211 309 358 47 27 16 47 57 46 44 47 39 23 21 25
348 333 341 3 9 6 357 348 307 303 67 70 72 250 241 227 196 197 324 326 262 68 83 117 282 99 137 321 286 303 351 356 345 4 334 323 296 266 318 306 328 360 357 117 127 298 121 235 286 293 165 291 357 79 25 340 29 118 163 204 90 94 284 12 105 192 313 224 281 307 256 243 213 207 248 313 99 60 24 44 55 50 50 47 33 22 19 22
360 8 24 16 18 7 355 343 342 64 66 60 307 256 251 256 307 354 346 330 107 83 84 203 204 32 236 185 234 292 351 350 340 357 321 326 301 300 59 2 318 354 359 85 105 312 68 132 279 297 259 303 356 61 196 312 344 39 70 27 44 139 170 175 133 174 202 210 247 301 312 265 235 208 174 175 181 149 87 65 73 75 70 63 47 32 21 23
12 55 332 4 14 353 336 335 43 62 59 209 197 220 278 288 316 344 348 354 48 121 182 209 182 293 258 220 222 282 353 188 191 314 253 331 315 326 28 26 330 341 355 50 84 347 30 88 251 296 323 326 336 249 169 177 345 24 18 349 344 19 95 296 253 134 148 179 194 227 278 268 256 213 155 162 185 171 132 107 112 115 110 105 71 45 35 32
26 57 286 359 7 337 331 18 55 60 103 158 187 245 308 317 298 318 331 349 351 239 158 163 173 185 202 202 246 242 336 320 212 177 248 289 314 316 13 19 332 322 354 22 33 70 47 141 195 288 331 305 249 239 192 178 166 147 184 245 271 242 341 305 287 310 115 169 178 166 234 267 266 260 164 161 174 189 162 127 120 102 95 98 87 78 65 51
58 43 282 354 359 341 24 66 345 25 108 99 301 270 296 315 289 303 315 346 355 332 68 120 171 174 177 190 210 188 104 288 248 177 216 239 106 201 314 350 350 327 70 22 298 232 143 105 118 245 259 240 252 260 248 219 162 119 147 168 126 124 114 145 224 271 302 249 155 126 175 268 271 296 258 178 175 206 210 152 123 85 38 39 39 59 80 69
82 284 281 353 353 348 71 53 322 10 42 267 282 279 292 315 324 329 334 357 3 344 15 25 214 187 187 187 157 144 114 204 235 218 227 241 101 239 317 350 3 13 59 25 302 302 85 81 69 295 291 306 301 302 310 295 92 90 57 57 101 116 123 151 179 179 202 235 145 127 235 264 282 321 323 270 273 273 273 235 141 133 348 7 20 30 53 59
275 261 267 359 1 18 106 84 307 344 306 311 344 318 306 306 335 358 336 316 315 303 356 325 252 209 174 109 111 168 172 160 239 246 238 229 192 30 359 356 2 15 18 303 273 305 310 322 94 10 332 333 335 347 349 336 40 107 144 35 81 95 86 87 92 91 218 235 163 162 231 244 266 320 329 322 330 329 316 302 140 103 15 2 20 27 41 50
335 295 269 352 12 40 118 162 139 168 292 340 337 309 312 315 317 319 282 283 285 203 204 306 283 98 44 39 53 10 126 122 254 274 9 352 272 20 7 348 353 14 355 351 34 149 238 232 138 143 240 247 279 285 265 279 322 98 131 100 58 36 53 345 16 90 226 263 160 162 220 261 289 317 317 307 316 315 304 308 330 15 7 357 36 38 38 46
15 355 311 334 10 39 78 67 80 109 332 10 333 298 273 294 305 291 265 313 341 6 70 355 351 47 36 33 46 8 360 33 5 11 33 342 298 329 344 335 355 11 12 19 19 55 125 23 156 152 182 204 209 231 229 191 219 265 242 154 170 306 95 111 99 146 199 229 257 215 198 251 278 273 273 282 273 248 257 298 324 334 355 21 136 89 40 44
57 79 17 340 339 16 26 14 41 53 317 237 294 297 284 294 316 312 316 42 9 21 71 34 20 45 19 18 64 22 332 347 8 50 36 316 284 292 317 327 13 13 20 20 3 39 85 353 281 163 200 218 208 229 253 226 216 243 241 178 185 207 171 133 166 218 178 153 272 251 186 213 250 232 242 280 276 259 285 322 302 262 299 344 340 35 38 33
44 124 66 25 295 326 12 348 357 360 323 247 210 328 328 327 327 305 311 1 23 25 57 31 23 39 354 7 97 155 342 357 3 30 241 308 310 319 334 344 15 15 26 20 354 59 104 281 272 218 263 264 231 236 254 247 230 229 223 206 197 204 201 190 210 209 162 177 248 237 188 214 236 217 236 268 265 264 302 318 294 279 344 350 12 30 27 18
41 58 326 12 65 218 245 309 322 358 358 345 346 9 8 343 330 291 293 357 9 5 58 95 337 337 352 63 115 129 42 79 328 305 243 345 354 347 349 334 320 14 33 22 351 56 123 267 276 244 301 302 279 263 256 240 245 253 247 230 202 198 208 215 226 209 185 211 239 230 221 243 241 214 234 265 272 251 278 325 344 354 354 1 20 26 15 7
47 13 322 17 15 285 270 322 12 70 18 7 359 352 10 5 348 314 310 27 33 323 32 102 253 257 139 90 101 128 191 174 177 239 200 78 356 309 271 272 277 352 21 22 340 4 58 292 291 50 357 300 293 309 311 270 240 250 261 245 203 203 222 235 241 209 196 239 257 256 263 269 259 224 236 281 324 8 21 5 357 339 333 358 14 10 0 357
353 284 329 61 348 332 338 332 27 80 29 7 3 332 345 354 341 316 306 8 131 171 131 190 245 292 51 65 86 179 211 173 169 207 190 160 199 217 209 221 234 342 354 15 325 355 41 293 339 42 337 277 287 309 300 320 323 268 247 218 202 207 217 222 221 197 188 212 244 272 278 262 254 237 247 325 9 51 34 337 320 313 331 16 19 360 356 348
358 324 14 72 261 344 14 347 15 65 67 352 338 323 320 311 318 333 331 341 57 110 205 194 182 33 20 23 23 229 216 189 191 212 197 179 202 207 217 237 221 210 230 195 252 226 153 211 300 73 260 271 279 273 281 348 334 279 240 194 197 211 220 224 244 226 200 181 183 217 236 227 206 129 105 1 360 15 310 273 267 291 320 13 22 349 348 331
Height
799 799 798 797 796 795 795 793 792 791 791 790 789 789 788 787 786 786 786 785 785 784 784 783 782 782 781 780 779 778 776 774 773 773 771 764 763 765 766 766 767 768 768 769 769 770 769 770 770 771 771 771 773 773 771 771 771 775 782 791 793 791 786 778 775 771 769 766 759 755 753 756 756 753 751 752 759 761 763 765 765 764 762 764 766 768 772 774
799 798 797 796 795 795 793 792 791 790 790 789 788 788 788 787 786 786 785 785 785 784 783 782 781 781 780 779 778 777 775 773 772 770 765 760 762 764 764 765 767 768 768 768 768 769 770 771 771 771 772 773 774 773 772 771 770 776 784 790 788 782 776 770 768 765 766 765 760 755 753 755 754 753 752 758 767 765 766 772 770 770 769 768 769 771 773 774
798 798 797 796 795 793 792 791 791 790 789 789 788 787 787 786 786 785 785 784 784 783 782 781 781 780 779 779 778 777 775 773 770 765 760 759 760 762 763 765 766 767 767 768 769 770 770 771 771 772 774 775 775 773 773 772 771 775 781 787 782 773 771 766 764 762 762 762 760 757 753 756 755 751 754 760 769 768 768 771 771 775 774 772 772 772 774 775
798 797 796 795 794 793 792 791 790 789 788 788 787 786 786 785 785 785 784 784 783 782 781 781 780 779 779 778 777 776 774 773 767 760 759 759 759 761 763 764 765 766 767 768 769 770 770 771 771 772 775 777 776 774 775 772 772 775 777 781 774 769 769 763 759 759 759 760 759 757 756 759 756 753 757 760 769 774 770 764 762 768 770 771 773 773 774 775
797 796 795 794 793 792 791 790 789 788 787 787 786 786 785 785 785 785 784 783 782 782 781 780 780 779 779 777 777 775 775 774 765 758 759 759 759 761 763 764 765 766 767 768 769 770 770 771 772 773 776 778 777 775 775 771 771 774 773 772 768 768 769 760 756 757 757 759 758 757 758 758 756 757 759 758 764 768 762 758 757 759 762 765 768 771 774 774
796 795 794 793 792 791 790 789 788 787 786 786 785 785 785 784 784 784 783 782 782 781 780 780 779 779 778 777 777 775 776 774 763 758 759 758 760 761 762 764 765 766 767 768 769 770 771 772 773 776 778 778 777 775 774 770 770 774 772 767 765 767 767 759 756 756 755 757 756 756 756 756 758 762 761 758 759 757 753 755 756 755 757 760 764 769 772 774
795 794 793 792 791 790 789 788 787 786 786 785 785 784 784 783 783 783 782 782 781 780 780 780 779 778 777 777 776 775 776 770 760 759 759 758 760 760 762 763 764 766 767 768 769 770 771 773 775 776 779 778 776 774 772 770 769 774 772 765 763 765 764 758 756 757 756 756 755 755 754 756 760 762 761 759 758 756 753 756 758 758 760 763 766 769 771 774
795 794 792 791 790 789 788 787 786 785 785 784 784 783 783 783 782 782 781 781 780 780 780 779 779 778 777 777 776 776 775 766 758 759 758 758 759 760 762 763 764 766 766 768 768 770 771 773 774 774 778 777 774 773 770 771 771 772 770 765 762 762 759 756 755 756 756 756 754 754 755 757 759 758 760 761 759 756 755 757 761 763 766 768 770 771 773 775
794 793 791 790 789 788 787 786 785 784 784 783 783 782 782 782 781 781 780 780 780 780 779 779 779 778 778 777 776 775 768 761 758 758 758 758 759 760 761 762 764 765 766 768 768 770 771 772 772 772 776 774 773 772 769 772 773 768 766 764 762 761 757 755 754 754 756 755 753 754 758 757 756 757 760 760 759 758 757 760 763 765 769 771 772 773 774 775
793 791 790 789 788 787 786 785 784 783 783 782 782 782 781 781 780 780 780 780 779 780 779 779 779 778 778 776 777 773 763 759 758 757 758 758 759 760 761 762 763 765 766 767 768 769 768 768 770 769 772 772 771 771 769 771 770 764 764 763 761 760 757 755 754 753 755 754 751 754 759 757 754 758 760 759 758 758 760 764 766 767 770 772 773 774 774 775
791 790 789 788 787 786 785 785 784 783 782 781 781 781 780 780 779 779 779 779 779 779 779 779 778 778 778 777 777 771 760 759 759 757 758 759 759 760 761 762 762 764 765 766 766 766 765 766 767 769 772 771 769 770 767 765 764 761 762 762 760 758 757 756 755 754 754 754 751 751 757 757 756 758 757 756 758 759 761 765 768 769 771 772 774 775 775 776
791 790 788 787 787 786 785 784 783 783 782 781 780 780 779 779 779 779 779 779 779 778 778 778 778 778 777 777 775 767 759 760 759 758 759 759 760 760 760 761 762 763 764 765 764 763 763 764 767 770 771 770 770 770 765 761 761 760 761 763 761 758 758 755 754 754 753 753 750 751 760 763 759 758 756 756 759 760 762 765 768 770 772 773 774 775 776 777
790 789 788 787 786 785 785 784 783 783 781 781 780 779 779 778 778 778 778 779 778 778 778 778 778 778 778 774 766 761 760 760 760 759 759 759 760 760 760 761 761 762 763 763 762 761 763 763 766 769 767 768 770 766 761 759 760 760 760 763 763 763 762 757 755 755 754 755 749 754 772 770 759 759 759 759 760 762 766 767 767 770 772 774 775 776 777 777
789 788 787 786 786 785 784 784 783 782 781 781 780 779 779 778 778 778 778 778 778 778 778 778 778 777 777 769 759 759 760 759 759 759 759 759 759 759 760 760 761 762 762 762 761 760 762 764 766 766 765 766 765 761 762 763 762 763 762 765 771 772 767 759 758 759 756 757 751 755 775 770 758 760 761 760 761 764 768 768 768 770 772 774 775 776 777 778
789 788 787 786 785 784 784 784 783 782 782 781 780 780 778 778 778 778 778 778 778 778 777 778 778 777 778 768 757 758 759 758 758 757 758 759 759 759 759 759 760 761 761 761 760 760 762 763 765 767 765 762 762 765 770 769 766 769 770 772 778 777 772 764 760 760 758 758 753 758 772 768 758 760 760 762 763 764 768 769 769 770 772 774 776 777 778 780
788 787 786 786 785 784 783 783 783 782 781 781 780 780 779 778 778 777 778 777 778 778 778 779 777 778 777 766 757 757 757 757 756 756 757 758 758 758 758 758 759 759 760 760 760 760 761 762 763 765 764 764 768 771 775 777 773 776 778 777 778 777 776 769 760 759 759 759 756 758 767 765 757 757 759 762 762 764 767 768 769 770 771 774 776 777 779 780
788 787 786 785 784 783 783 782 782 782 781 781 780 779 779 778 777 777 777 777 778 778 778 778 778 778 772 760 757 758 756 756 755 755 756 756 757 757 758 759 758 758 759 757 758 760 760 763 765 766 768 771 774 773 781 788 783 780 780 779 781 781 780 775 766 759 758 760 760 760 763 761 756 756 760 762 761 764 767 767 768 769 770 773 775 777 778 779
787 786 785 784 783 783 782 782 782 781 781 780 779 779 778 778 778 778 777 777 778 778 778 778 778 779 771 759 759 759 756 756 755 754 755 756 756 757 759 760 759 759 760 760 760 761 762 765 768 771 773 775 775 776 785 790 785 782 782 781 784 784 781 780 772 763 760 762 764 765 765 762 758 757 760 762 763 765 766 767 767 768 769 772 774 775 777 778
786 785 784 783 783 782 782 781 781 781 780 779 779 778 777 778 778 778 778 778 778 776 775 775 774 775 770 762 758 757 755 755 754 753 754 755 756 758 759 760 761 762 765 767 765 764 765 768 773 777 778 776 774 775 778 779 778 779 780 780 782 783 780 777 770 765 766 767 768 769 768 765 763 760 759 763 766 765 766 768 768 770 771 772 774 774 775 776
785 784 783 783 782 782 781 781 780 780 779 779 778 777 778 779 779 778 778 777 775 771 768 769 770 769 766 760 757 756 755 754 754 753 753 754 755 758 760 761 763 764 767 770 769 766 768 774 779 779 777 773 771 773 774 775 777 777 778 778 781 784 779 773 767 763 766 770 772 773 771 769 767 761 758 761 765 766 768 770 770 771 772 772 774 773 773 774
784 784 783 782 782 781 781 780 780 779 778 778 777 777 778 780 782 780 777 773 768 766 766 765 765 765 761 757 756 757 758 757 754 753 754 754 754 759 762 763 766 770 771 772 771 768 770 778 779 773 771 771 772 776 776 776 778 777 776 776 780 784 778 771 768 765 766 768 772 774 770 767 765 761 759 758 758 761 766 769 769 769 769 770 771 772 773 774
783 782 782 782 781 781 780 779 779 778 778 778 777 778 778 778 779 778 777 775 766 762 763 763 763 763 758 756 756 758 763 764 758 753 753 754 755 760 763 764 769 772 772 773 773 773 777 778 771 768 773 776 776 778 776 775 776 775 777 778 780 782 779 773 767 766 768 767 770 772 768 765 764 761 759 757 755 757 762 765 765 767 769 770 770 771 774 775
782 781 781 781 781 780 779 779 778 778 777 777 777 777 777 776 776 775 776 778 771 761 760 762 763 761 758 755 754 756 762 764 761 755 751 754 757 759 762 765 770 772 772 773 775 781 783 772 765 769 774 774 774 777 777 775 775 776 777 779 781 782 782 778 770 768 769 769 770 770 768 766 764 761 757 757 759 757 759 763 763 765 765 766 767 768 771 772
781 781 781 780 780 780 779 778 778 778 777 777 777 777 776 776 775 775 775 778 776 764 757 757 758 758 756 752 751 755 759 759 759 754 749 753 758 760 761 764 769 772 772 772 775 781 779 767 766 771 772 772 773 776 777 774 776 778 776 776 777 777 778 778 775 771 769 772 772 770 772 771 767 766 758 757 762 757 757 760 760 763 763 762 764 766 768 769
781 780 780 780 780 779 779 778 777 778 777 776 777 776 777 776 775 775 776 782 781 767 757 756 756 754 750 750 751 752 756 755 753 750 748 750 755 759 761 762 767 772 772 773 777 778 773 766 767 769 769 772 773 774 774 774 777 779 775 771 770 771 774 777 778 777 778 779 776 775 784 781 773 771 764 759 762 758 758 760 756 757 761 763 764 764 765 767
780 780 780 780 780 779 779 778 777 778 777 776 776 776 776 775 775 774 778 790 786 767 759 758 757 754 748 750 750 750 759 758 748 746 747 747 749 754 761 764 765 768 768 771 774 773 769 764 764 766 769 773 775 775 773 773 780 782 773 766 768 772 775 778 778 780 785 786 782 781 787 787 778 770 764 763 763 758 757 759 755 753 757 761 761 759 761 763
780 780 779 780 779 779 778 777 778 778 777 777 776 775 775 773 774 772 780 796 789 767 762 761 757 754 749 749 748 754 767 760 747 746 745 747 748 750 760 766 766 766 764 769 775 772 767 762 762 767 770 774 777 774 771 772 778 778 768 764 769 772 774 777 777 780 783 783 784 783 783 789 787 772 765 768 767 760 757 756 754 752 753 757 757 755 756 757
780 780 779 779 779 779 778 778 778 777 777 777 775 774 773 772 773 773 786 801 787 765 761 759 753 750 749 749 748 753 759 754 753 752 743 745 748 750 760 763 763 764 761 769 777 773 768 763 762 766 771 775 772 766 766 769 771 768 765 768 770 770 772 774 776 780 786 786 786 785 784 792 794 777 769 773 771 764 759 754 752 750 749 752 753 752 751 752
781 780 779 779 779 779 778 778 778 776 777 775 774 774 772 771 772 777 793 798 779 762 759 756 753 752 751 752 752 753 753 752 756 752 744 748 749 750 759 760 759 763 763 768 772 768 765 761 760 764 769 769 762 759 761 764 765 763 765 770 770 772 776 778 779 780 786 792 788 783 784 792 795 781 772 774 772 766 759 754 752 750 748 746 747 748 749 750
780 780 780 779 779 778 778 778 777 776 776 774 774 772 769 772 777 788 802 794 775 765 759 755 756 756 755 757 757 755 755 754 752 749 748 752 751 751 756 757 757 763 767 769 768 765 762 759 760 760 761 759 755 758 763 760 761 763 765 769 771 775 777 781 786 783 789 796 787 780 783 789 794 785 772 770 768 764 760 756 753 750 747 743 742 744 746 747
780 780 779 778 779 778 778 778 776 776 775 773 773 770 770 777 785 798 800 782 774 770 761 760 760 757 757 761 762 758 757 756 752 752 754 755 756 757 758 760 761 766 772 770 768 768 765 761 760 755 752 755 754 759 765 764 763 764 766 771 776 781 781 783 787 787 794 797 784 783 788 790 792 782 768 766 765 763 763 759 756 753 749 745 741 742 746 747
780 780 779 778 778 778 778 777 776 776 775 773 772 769 775 786 793 798 790 775 777 776 767 767 764 760 760 761 764 761 758 759 754 753 756 758 760 761 762 765 765 771 778 776 772 771 764 760 760 756 750 752 755 761 766 766 767 767 769 776 785 792 795 794 793 795 799 793 786 790 791 789 787 775 766 766 763 761 762 760 759 757 752 749 746 744 745 749
780 779 779 778 778 777 777 776 775 776 774 772 773 772 780 794 797 794 787 779 779 773 766 767 764 764 765 765 768 765 761 763 759 756 758 759 763 763 763 765 766 770 777 780 779 773 767 763 760 757 753 750 754 763 768 769 769 768 769 775 786 798 806 805 804 807 802 790 788 794 790 787 784 775 770 768 764 762 762 762 761 756 754 752 751 749 746 746
779 779 779 778 777 777 776 776 775 775 774 772 773 777 787 797 794 789 785 781 776 768 766 769 766 765 767 769 772 768 766 768 763 761 763 764 768 768 764 764 765 767 772 780 782 778 778 774 763 759 758 754 754 759 764 766 768 770 770 773 779 786 795 799 797 797 795 789 789 790 785 782 781 778 774 768 765 766 765 763 761 756 754 752 751 752 752 750
779 778 778 777 777 776 775 776 775 774 774 773 776 785 793 796 792 788 784 778 774 771 770 770 768 768 771 773 773 769 769 771 766 764 765 767 770 769 765 763 763 766 771 778 782 781 783 777 762 759 758 754 756 757 757 760 767 773 773 773 775 774 776 788 795 793 792 791 789 787 783 781 781 778 773 769 768 767 765 762 759 758 755 752 752 755 755 755
778 777 777 776 776 776 775 775 774 774 774 775 782 790 792 789 787 785 780 773 773 774 773 772 771 774 778 776 775 772 769 769 768 767 767 769 771 770 766 764 763 763 765 771 778 779 781 775 763 760 759 755 758 758 754 757 764 772 774 772 773 771 769 782 798 801 798 795 793 792 784 778 781 778 770 769 769 766 766 762 761 762 757 755 758 759 758 757
777 776 776 776 775 776 775 775 774 774 774 778 787 791 788 783 779 776 772 770 772 772 775 779 777 779 783 781 780 777 771 770 772 773 773 773 773 771 768 765 762 762 762 766 771 773 776 774 765 762 761 756 756 758 757 757 759 768 774 770 770 773 771 777 790 797 802 802 797 794 788 780 781 781 774 771 770 770 770 765 763 763 759 759 763 762 760 759
776 775 775 776 776 776 775 775 774 774 776 782 790 791 787 781 774 772 770 769 771 772 776 782 780 779 784 785 784 779 775 776 778 778 777 776 774 771 769 767 762 763 764 764 767 771 774 774 767 764 765 760 756 759 762 761 759 763 768 768 772 778 778 781 789 794 800 805 799 794 795 789 780 777 775 774 774 773 772 768 765 765 764 765 765 763 762 759
776 776 777 777 777 776 775 775 774 775 779 786 793 791 785 780 773 772 772 771 772 773 778 781 779 780 783 783 783 780 779 781 781 781 780 778 776 769 768 769 764 763 764 762 766 772 775 778 774 766 767 766 760 762 769 770 766 764 765 769 775 780 783 785 790 791 792 800 801 795 794 788 775 771 772 773 775 774 771 768 768 769 769 768 767 766 764 762
778 779 780 778 776 776 775 774 775 779 783 788 792 788 782 780 776 772 772 772 772 773 777 779 779 780 780 780 782 781 781 782 781 782 782 779 777 771 770 773 768 765 764 762 768 774 775 781 780 771 768 770 768 769 774 774 773 771 771 774 776 780 786 787 789 791 789 793 799 797 792 781 771 772 771 770 774 773 769 768 768 769 770 770 770 768 765 764
781 783 781 777 776 776 774 775 780 786 787 789 791 787 782 781 778 775 773 772 772 770 772 776 777 779 779 780 782 781 781 783 782 782 781 779 779 777 775 776 773 770 767 764 768 773 775 779 781 777 772 771 772 772 772 771 774 775 774 776 778 781 785 787 790 794 791 790 794 796 793 780 772 775 774 771 773 772 769 768 767 768 769 770 771 769 767 765
785 786 781 776 776 774 774 779 788 792 790 788 789 787 783 780 779 778 775 773 773 771 771 773 775 777 779 779 780 780 781 783 782 782 780 779 781 781 778 776 774 771 770 771 773 773 776 779 780 780 776 775 776 774 773 772 772 774 776 778 781 783 785 788 791 792 792 793 795 797 794 782 776 779 776 772 773 772 771 769 767 768 768 768 769 769 769 768
788 786 779 776 776 773 776 784 790 792 790 789 788 786 783 781 780 779 778 776 776 775 774 775 775 776 777 777 779 780 782 782 781 781 780 779 781 782 780 776 773 771 771 774 776 774 776 780 782 782 780 779 775 771 774 776 773 775 779 780 782 783 783 785 789 791 791 792 792 795 795 785 778 780 779 777 777 774 773 772 769 769 769 768 768 767 768 768
792 788 781 779 776 773 780 788 791 793 793 792 790 787 784 782 780 781 781 779 778 777 777 776 776 776 776 777 778 778 781 783 782 781 781 781 781 781 780 777 775 775 774 776 778 776 778 782 785 787 788 786 781 776 776 775 774 778 781 783 783 783 784 787 791 794 793 791 789 789 790 785 781 781 780 777 776 774 774 773 772 771 770 769 769 768 768 767
792 789 785 783 778 777 786 793 794 795 797 796 794 790 787 784 781 780 781 780 778 778 778 778 776 776 778 779 779 779 781 782 783 783 783 784 783 781 781 780 779 778 775 776 777 776 780 786 785 787 792 794 791 788 782 777 778 782 785 785 784 783 783 786 789 793 795 795 793 787 784 783 782 782 779 776 775 774 773 774 773 772 772 770 769 768 768 767
795 792 790 788 785 786 793 797 798 798 798 799 796 791 790 789 784 780 779 781 781 778 780 783 779 779 782 783 783 786 786 785 786 786 787 789 787 785 784 782 782 781 776 775 776 776 782 787 785 785 789 790 787 783 781 781 780 780 783 785 785 784 784 785 790 793 792 793 792 786 782 782 780 781 781 776 774 774 774 774 774 773 772 772 771 770 770 770
798 799 800 798 794 794 797 800 803 802 800 800 797 792 790 790 788 784 780 781 783 781 784 789 787 786 788 788 787 789 790 789 789 790 794 795 791 788 785 783 784 782 778 778 778 779 784 787 786 786 785 784 784 781 781 784 781 778 781 785 786 785 783 785 789 789 790 793 791 785 783 783 779 779 778 773 772 773 774 775 774 774 774 774 773 773 772 772
801 803 808 807 802 801 801 801 804 805 802 801 798 794 793 792 792 790 784 782 784 784 785 789 792 793 793 791 790 790 792 791 791 794 798 797 794 791 786 784 786 784 782 783 781 783 788 788 788 788 783 781 784 783 782 784 783 780 781 783 785 785 783 785 786 785 788 790 785 781 782 781 778 779 776 772 773 775 775 774 775 775 774 773 772 772 772 772
807 808 810 809 807 807 806 804 805 804 802 800 799 797 798 798 796 793 788 784 787 789 788 789 793 795 793 791 790 792 794 793 793 796 798 796 797 796 790 787 787 786 786 786 785 787 789 788 791 792 786 781 781 782 783 784 784 782 782 783 786 786 784 783 783 783 785 784 778 779 784 782 780 781 777 773 777 779 777 776 775 774 773 772 772 772 773 774
813 814 814 812 810 808 807 806 805 804 802 803 802 801 802 802 801 798 793 789 790 793 792 791 792 794 794 792 790 792 794 793 793 795 797 796 797 796 794 791 790 789 789 788 789 789 789 792 794 791 788 786 781 780 782 785 786 786 785 785 784 784 784 785 785 785 786 783 778 781 786 784 782 783 781 778 780 778 776 775 774 773 773 773 773 774 775 775
817 817 817 815 811 809 808 807 807 806 805 808 808 805 804 803 803 802 796 791 792 793 793 792 792 793 794 793 792 791 792 792 792 792 792 794 794 793 792 792 791 792 791 791 791 790 791 796 794 791 794 791 782 780 781 781 783 785 785 786 783 780 780 781 781 781 780 778 777 781 783 779 779 782 781 780 779 777 776 777 775 774 775 776 776 776 776 776
818 817 817 816 812 811 812 811 809 809 809 811 812 809 806 805 803 801 796 793 793 793 793 793 793 794 794 794 793 791 790 789 789 788 789 789 790 790 790 790 790 791 792 791 792 792 792 793 793 795 799 794 786 786 785 784 786 783 779 778 777 774 776 777 777 777 775 773 775 777 775 773 778 781 779 778 779 777 777 777 775 775 776 778 778 777 777 777